Total_Precipitation_Accumulation
1.23 1.16 1.07 0.97 0.90 0.83 0.82 0.72 0.59 0.46 0.39 0.29 0.23 0.19 0.20 0.17 0.21 0.19 0.14 0.13 0.12 0.10 0.09 0.07 0.04 0.02 0.02 0.03 0.04 0.06 0.09 0.11 0.10 0.08 0.07 0.06 0.05 0.05
1.07 1.06 1.00 0.93 0.92 0.88 0.84 0.81 0.69 0.55 0.47 0.38 0.30 0.25 0.27 0.25 0.26 0.19 0.17 0.15 0.13 0.11 0.08 0.06 0.04 0.03 0.02 0.02 0.02 0.02 0.03 0.03 0.03 0.04 0.04 0.04 0.04 0.04
0.78 0.78 0.80 0.77 0.79 0.79 0.79 0.75 0.70 0.61 0.47 0.43 0.33 0.28 0.32 0.33 0.34 0.26 0.22 0.18 0.14 0.10 0.08 0.06 0.07 0.06 0.05 0.03 0.02 0.03 0.03 0.02 0.03 0.03 0.03 0.03 0.03 0.02
0.56 0.57 0.58 0.59 0.63 0.63 0.62 0.61 0.61 0.59 0.50 0.41 0.34 0.27 0.27 0.32 0.38 0.36 0.33 0.29 0.26 0.25 0.23 0.17 0.14 0.12 0.09 0.06 0.04 0.03 0.02 0.02 0.02 0.03 0.03 0.03 0.03 0.03
0.36 0.37 0.41 0.44 0.47 0.46 0.45 0.47 0.50 0.48 0.47 0.39 0.36 0.34 0.27 0.24 0.29 0.31 0.33 0.42 0.39 0.39 0.45 0.37 0.26 0.21 0.16 0.11 0.08 0.06 0.05 0.04 0.03 0.02 0.03 0.03 0.04 0.05
0.37 0.34 0.33 0.31 0.32 0.37 0.40 0.47 0.50 0.54 0.53 0.46 0.44 0.41 0.36 0.30 0.30 0.35 0.43 0.51 0.52 0.44 0.44 0.45 0.40 0.33 0.27 0.23 0.21 0.18 0.15 0.12 0.10 0.08 0.06 0.06 0.06 0.07
0.37 0.39 0.36 0.31 0.26 0.26 0.25 0.31 0.37 0.47 0.51 0.51 0.50 0.50 0.46 0.39 0.35 0.43 0.50 0.57 0.61 0.57 0.49 0.45 0.44 0.38 0.34 0.30 0.27 0.26 0.25 0.22 0.19 0.15 0.12 0.11 0.09 0.07
0.42 0.44 0.39 0.33 0.33 0.27 0.21 0.20 0.22 0.26 0.32 0.37 0.40 0.45 0.48 0.51 0.55 0.55 0.58 0.57 0.60 0.68 0.54 0.54 0.47 0.41 0.38 0.32 0.31 0.33 0.33 0.28 0.24 0.19 0.15 0.12 0.11 0.11
0.40 0.50 0.56 0.49 0.46 0.45 0.41 0.29 0.22 0.18 0.21 0.26 0.35 0.39 0.39 0.42 0.50 0.57 0.63 0.67 0.58 0.57 0.42 0.41 0.37 0.32 0.32 0.31 0.28 0.28 0.31 0.28 0.23 0.19 0.17 0.16 0.16 0.16
0.34 0.43 0.65 0.66 0.61 0.58 0.60 0.63 0.48 0.31 0.28 0.25 0.31 0.31 0.28 0.34 0.48 0.57 0.56 0.44 0.36 0.29 0.21 0.21 0.24 0.22 0.21 0.19 0.17 0.15 0.16 0.16 0.15 0.15 0.16 0.16 0.16 0.17
0.27 0.38 0.51 0.64 0.62 0.62 0.59 0.60 0.55 0.41 0.35 0.30 0.21 0.19 0.20 0.27 0.35 0.44 0.47 0.40 0.31 0.26 0.17 0.12 0.12 0.12 0.11 0.11 0.09 0.08 0.08 0.07 0.08 0.09 0.09 0.10 0.11 0.11
0.14 0.25 0.41 0.46 0.45 0.50 0.55 0.61 0.68 0.48 0.37 0.37 0.32 0.28 0.26 0.33 0.48 0.57 0.55 0.48 0.37 0.36 0.32 0.25 0.21 0.17 0.17 0.14 0.08 0.06 0.05 0.06 0.06 0.06 0.06 0.06 0.06 0.06
0.08 0.16 0.22 0.27 0.30 0.37 0.45 0.52 0.65 0.51 0.47 0.50 0.46 0.37 0.35 0.37 0.42 0.44 0.49 0.52 0.44 0.38 0.40 0.43 0.42 0.38 0.31 0.24 0.15 0.07 0.03 0.02 0.02 0.02 0.02 0.02 0.02 0.02
0.09 0.12 0.14 0.15 0.18 0.23 0.27 0.35 0.45 0.50 0.51 0.56 0.53 0.40 0.32 0.32 0.29 0.27 0.28 0.30 0.29 0.27 0.27 0.25 0.25 0.23 0.18 0.14 0.11 0.07 0.04 0.02 0.01 0.01 0.01 0.02 0.02 0.02
0.08 0.10 0.10 0.12 0.16 0.18 0.21 0.27 0.36 0.48 0.58 0.56 0.46 0.34 0.27 0.25 0.23 0.23 0.22 0.21 0.16 0.12 0.09 0.07 0.08 0.07 0.05 0.04 0.04 0.03 0.03 0.02 0.01 0.01 0.01 0.01 0.01 0.02
0.09 0.08 0.07 0.12 0.16 0.17 0.21 0.29 0.41 0.51 0.55 0.47 0.35 0.25 0.18 0.19 0.20 0.17 0.14 0.11 0.10 0.07 0.04 0.03 0.04 0.04 0.04 0.04 0.03 0.04 0.05 0.04 0.02 0.02 0.02 0.02 0.02 0.03
0.09 0.14 0.15 0.19 0.23 0.27 0.37 0.44 0.45 0.43 0.43 0.37 0.32 0.24 0.19 0.17 0.12 0.07 0.04 0.03 0.05 0.06 0.06 0.04 0.03 0.03 0.03 0.03 0.04 0.05 0.06 0.05 0.05 0.06 0.06 0.04 0.04 0.06
0.12 0.19 0.25 0.30 0.32 0.38 0.44 0.47 0.47 0.44 0.40 0.35 0.28 0.21 0.16 0.12 0.08 0.05 0.03 0.04 0.06 0.05 0.03 0.02 0.01 0.01 0.02 0.04 0.03 0.04 0.07 0.07 0.08 0.09 0.07 0.04 0.04 0.07
0.10 0.20 0.39 0.42 0.37 0.41 0.43 0.42 0.35 0.28 0.25 0.22 0.16 0.10 0.06 0.04 0.04 0.03 0.03 0.02 0.02 0.02 0.02 0.03 0.04 0.04 0.04 0.05 0.07 0.03 0.07 0.09 0.07 0.06 0.05 0.04 0.04 0.04
0.05 0.12 0.24 0.27 0.29 0.31 0.28 0.25 0.18 0.13 0.11 0.08 0.04 0.02 0.02 0.01 0.01 0.01 0.01 0.01 0.01 0.01 0.02 0.04 0.04 0.03 0.04 0.05 0.07 0.08 0.04 0.04 0.04 0.04 0.03 0.02 0.02 0.02
0.06 0.10 0.13 0.15 0.14 0.13 0.11 0.09 0.07 0.05 0.04 0.03 0.02 0.01 0.02 0.01 0.01 0.01 0.01 0.00 0.01 0.01 0.02 0.03 0.02 0.01 0.02 0.04 0.07 0.08 0.05 0.05 0.04 0.02 0.01 0.01 0.01 0.01
0.04 0.05 0.05 0.05 0.04 0.03 0.02 0.02 0.02 0.01 0.01 0.01 0.01 0.01 0.01 0.01 0.01 0.01 0.01 0.01 0.01 0.01 0.01 0.01 0.01 0.02 0.03 0.04 0.06 0.06 0.05 0.04 0.05 0.07 0.05 0.03 0.02 0.01
0.01 0.01 0.01 0.00 0.01 0.01 0.01 0.01 0.01 0.00 0.00 0.00 0.00 0.01 0.02 0.02 0.01 0.01 0.01 0.01 0.01 0.01 0.01 0.00 0.00 0.01 0.01 0.02 0.04 0.04 0.04 0.04 0.05 0.07 0.07 0.06 0.03 0.01